Regional Weather Roundup
Issued by NWS

Home | Current Version | Previous Version | Graphics & Text | Print | Product List | Glossary On
Versions: 1 2 3 4 5 6 7 8 9 10 11 12 13 14 15 16 17 18 19 20 21 22 23 24 25 26 27 28 29 30 31 32 33 34 35 36 37 38 39 40 41 42 43 44 45 46 47 48 49 50
000
ASUS43 KBIS 052210
RWRND

NORTH DAKOTA REGIONAL WEATHER ROUNDUP
NATIONAL WEATHER SERVICE BISMARCK ND
400 PM CST MON DEC 05 2016

NOTE: "FAIR" INDICATES FEW OR NO CLOUDS BELOW 12,000 FEET WITH NO
SIGNIFICANT WEATHER AND/OR OBSTRUCTIONS TO VISIBILITY.


NDZ001>003-009>011-017-052300-
NORTHWEST NORTH DAKOTA

CITY           SKY/WX    TMP DP  RH WIND       PRES   REMARKS
WILLISTON      SNOW      13   9  84 NW33G40   29.78R VSB 1/4 WCI  -9
MINOT          CLOUDY    23  19  85 W21       29.60R WCI   8
MINOT AFB      CLOUDY    22  20  91 NW23      29.59S FOG     WCI   6
$$

NDZ018>021-031>035-040>046-052300-
SOUTHWEST NORTH DAKOTA

CITY           SKY/WX    TMP DP  RH WIND       PRES   REMARKS
BISMARCK       LGT SNOW  24  19  81 NW22G35   29.64R WCI   9
DICKINSON      SNOW      13   9  84 NW29G39   29.70R VSB 1/2 WCI  -8
GARRISON         N/A     23  18  81 NW26G33   29.61S WCI   6
HETTINGER ARPT LGT SNOW  18  12  77 NW29G45   29.73R VSB 1   WCI  -1
$$

NDZ004>008-012>016-024-026-027-054-052300-
NORTHEAST NORTH DAKOTA

CITY           SKY/WX    TMP DP  RH WIND       PRES   REMARKS
GRAND FORKS    CLOUDY    32  28  85 NE9       29.61F
GRND FRKS AFB  CLOUDY    30  27  90 NE9       29.61S
DEVILS LAKE    LGT SNOW  26  25  96 NE7       29.60R FOG     WCI  18
$$

NDZ022-023-025-028>030-036>039-047>053-052300-
SOUTHEAST NORTH DAKOTA

CITY           SKY/WX    TMP DP  RH WIND       PRES   REMARKS
FARGO          CLOUDY    36  28  73 E10       29.53S
JAMESTOWN      LGT SNOW  28  27  96 NE9       29.52R VSB 1   WCI  19
$$





USA.gov is the U.S. government's official web portal to all federal, state and local government web resources and services.